Location: B�rgermoos
(47.6500°N, 9.0667°E)
Time: 00:15:29
(UTC+00:00)

Tiros 1 - Pass Details

Date: 05 August 2021
Orbit: 630 x 663 km, 48.4° (Epoch: 19 September)

Event Time Altitude Azimuth Distance (km) Brightness Sun altitude
Rises 14:42:13 0° 197° (SSW) 2,981 11.0 40.1°
Reaches altitude 10° 14:45:17 10° 177° (S) 2,071 10.1 39.6°
Maximum altitude 14:48:19 17° 137° (SE) 1,660 9.2 39.1°
Drops below altitude 10° 14:51:21 10° 98° (E) 2,071 9.4 38.7°
Sets 14:54:24 0° 78° (ENE) 2,982 10.1 38.2°
